Content
SEND FEEDBACK

Daily
Averages
Monthly
Summary
French Polynesia

FAAA, FRENCH POLYNESIA


Home > Oceania > French Polynesia
Elevation: 7 feet     Latitude: 17 33S     Longitude: 149 37W

WEATHER
 
SELECT A DAY
Number of Records: 208,734;   Date Range: 6/30/96 - 8/31/14
 
SHARE

PRINT THIS DATA

[ ← Previous Day ]
WEATHER ALMANAC - JANUARY 24, 2013
[ Next Day → ]
[ °C ]   °F
Weather ElementAverageHighLow
Temperature81.7 °F87.8 °F (1:30 pm)75.2 °F (5:00 am)
Dewpoint72.1 °F75.2 °F (11:00 am)68 °F (7:30 pm)
Humidity71.9 %83 % (12:30 am)58 % (8:00 pm)
Barometer29.82 in29.87 in (11:00 pm)29.77 in (2:00 am)
Wind Speed9 mph29.1 mph (11:00 am)
Weather ElementAverage
Visibility7.4 mi
Wind DirectionENE (51.1 °)

Weather ElementTotal
Precipitation---
Cooling Degree Days16.5 (Base 65)
Growing Degree Days31.5 (Base 50)
Averaged from 54 records on January 24, 2013
WEATHER CONDITIONS BREAKOUT
WIND DIRECTION BREAKOUT
WEATHER BY HOUR - JANUARY 24, 2013
[ °C ]   °F
Local TimeTemperatureDewpointHumidityBarometerVisibilityWind DirectionWind SpeedGust SpeedPrecipitationEventsConditions
12:30 AM77.0 °F71.6 °F83 %29.80 in6.2 miVariable2.3 mphPartly Cloudy
1:00 AM77.0 °F71.6 °F83 %29.80 in6.2 miVariable2.3 mphPartly Cloudy
1:30 AM77.0 °F71.6 °F83 %29.80 in6.2 miVariable2.3 mphPartly Cloudy
2:00 AM77.0 °F71.0 °F77 %29.79 in12.0 miEast (90°)4.5 mphScattered Clouds
2:00 AM77.0 °F71.6 °F83 %29.77 in6.2 miVariable2.3 mphPartly Cloudy
2:30 AM77.0 °F71.6 °F83 %29.77 in6.2 miVariable2.3 mphPartly Cloudy
3:00 AM77.0 °F69.8 °F78 %29.77 in6.2 miVariable3.5 mphPartly Cloudy
3:30 AM77.0 °F69.8 °F78 %29.77 in6.2 miCalm
4:00 AM77.0 °F71.6 °F83 %29.77 in6.2 miCalm
4:30 AM77.0 °F71.6 °F83 %29.77 in6.2 miEast (100°)3.5 mph
5:00 AM76.0 °F70.0 °F78 %29.80 in37.0 miSE (130°)2.3 mphClear
5:00 AM75.2 °F69.8 °F83 %29.80 in6.2 miVariable2.3 mph
5:30 AM75.2 °F69.8 °F83 %29.80 in6.2 miVariable2.3 mph
6:00 AM75.2 °F69.8 °F83 %29.80 in6.2 miEast (100°)3.5 mphPartly Cloudy
6:30 AM77.0 °F71.6 °F83 %29.83 in6.2 miEast (100°)1.2 mphPartly Cloudy
7:00 AM80.6 °F71.6 °F74 %29.83 in6.2 miVariable2.3 mphPartly Cloudy
7:30 AM82.4 °F71.6 °F70 %29.83 in6.2 miVariable3.5 mphPartly Cloudy
8:00 AM84.0 °F72.0 °F60 %29.85 in19.0 miNW (320°)2.3 mphPartly Cloudy
8:00 AM84.2 °F71.6 °F66 %29.83 in6.2 miVariable2.3 mphPartly Cloudy
8:30 AM84.2 °F73.4 °F70 %29.83 in6.2 miNE (40°)13.8 mphPartly Cloudy
9:00 AM84.2 °F73.4 °F70 %29.83 in6.2 miNE (40°)16.1 mphPartly Cloudy
9:30 AM86.0 °F73.4 °F66 %29.83 in6.2 miNE (50°)13.8 mphPartly Cloudy
10:00 AM86.0 °F73.4 °F66 %29.83 in6.2 miNE (40°)15.0 mphPartly Cloudy
10:30 AM86.0 °F73.4 °F66 %29.83 in6.2 miNE (50°)13.8 mphPartly Cloudy
11:00 AM86.0 °F75.0 °F64 %29.85 in19.0 miNNE (30°)29.1 mphScattered Clouds
11:00 AM86.0 °F75.2 °F70 %29.83 in6.2 miNNE (30°)15.0 mphPartly Cloudy
11:30 AM84.2 °F73.4 °F70 %29.83 in6.2 miNE (40°)20.7 mphScattered Clouds
12:00 PM82.4 °F75.2 °F79 %29.83 in6.2 miENE (70°)11.5 mphScattered Clouds
12:30 PM86.0 °F75.2 °F70 %29.83 in6.2 miNE (50°)11.5 mphPartly Cloudy
1:00 PM86.0 °F75.2 °F70 %29.80 in6.2 miNE (50°)13.8 mphPartly Cloudy
1:30 PM87.8 °F75.2 °F66 %29.80 in6.2 miNE (40°)15.0 mphPartly Cloudy
2:00 PM87.0 °F75.0 °F60 %29.81 in12.0 miNE (50°)13.8 mphScattered Clouds
2:00 PM87.8 °F75.2 °F66 %29.80 in6.2 miNE (50°)13.8 mphPartly Cloudy
2:30 PM84.2 °F73.4 °F70 %29.80 in6.2 miENE (70°)13.8 mphScattered Clouds
3:00 PM84.2 °F75.2 °F74 %29.80 in6.2 miENE (60°)15.0 mphScattered Clouds
3:30 PM84.2 °F71.6 °F66 %29.80 in6.2 miENE (60°)12.7 mphScattered Clouds
4:00 PM86.0 °F75.2 °F70 %29.80 in6.2 miNE (50°)12.7 mphScattered Clouds
4:30 PM86.0 °F75.2 °F70 %29.80 in6.2 miNE (40°)12.7 mphScattered Clouds
5:00 PM85.0 °F73.0 °F60 %29.81 in1.0 miNE (50°)12.7 mphPartly Cloudy
5:00 PM86.0 °F73.4 °F66 %29.80 in6.2 miNE (50°)12.7 mphPartly Cloudy
5:30 PM84.2 °F73.4 °F70 %29.80 in6.2 miNE (50°)15.0 mphScattered Clouds
6:00 PM82.4 °F73.4 °F74 %29.80 in6.2 miNE (50°)12.7 mphPartly Cloudy
6:30 PM82.4 °F71.6 °F70 %29.83 in6.2 miENE (60°)12.7 mphPartly Cloudy
7:00 PM82.4 °F71.6 °F70 %29.83 in6.2 miENE (70°)10.4 mphPartly Cloudy
7:30 PM82.4 °F68.0 °F62 %29.83 in6.2 miENE (70°)10.4 mphPartly Cloudy
8:00 PM81.0 °F69.0 °F58 %29.86 in12.0 miEast (80°)11.2 mphPartly Cloudy
8:00 PM80.6 °F68.0 °F65 %29.86 in6.2 miEast (80°)5.8 mphPartly Cloudy
9:00 PM78.8 °F68.0 °F69 %29.86 in6.2 miEast (90°)3.5 mphPartly Cloudy
9:30 PM78.8 °F68.0 °F69 %29.86 in6.2 miENE (60°)4.6 mphPartly Cloudy
10:00 PM78.8 °F69.8 °F74 %29.86 in6.2 miENE (60°)6.9 mphScattered Clouds
10:30 PM80.6 °F69.8 °F70 %29.86 in6.2 miENE (70°)9.2 mphScattered Clouds
11:00 PM82.0 °F71.0 °F62 %29.87 in5.0 miNE (50°)10.4 mphPartly Cloudy
11:00 PM82.4 °F71.6 °F70 %29.86 in5.0 miNE (50°)10.4 mphPartly Cloudy
11:30 PM80.6 °F71.6 °F74 %29.86 in6.2 miENE (70°)8.1 mphPartly Cloudy
Hourly data recorded from NTAA, located miles away from Faaa, French Polynesia







STORIES FROM OUR PARTNERS